Tracking 31027 objects as of 19-Jul-2025
HD Live streaming from Space Station
objects crossing your sky now

STARLINK-30918

Track STARLINK-30918 now!
10-day predictions
STARLINK-30918 is classified as:


NORAD ID: 58365
Int'l Code: 2023-177Q
Perigee: 565.3 km
Apogee: 567.1 km
Inclination: 43.0 °
Period: 95.8 minutes
Semi major axis: 6937 km
RCS: Unknown
Launch date: November 18, 2023
Source: United States (US)
Launch site: AIR FORCE EASTERN TEST RANGE (AFETR)
Your satellite tracking list
BELINTERSAT 1
Track 1 satellite(s)




NASA's NSSDC Master Catalog

Two Line Element Set (TLE):
1 58365U 23177Q   25199.67950185 -.00000472  00000-0 -19898-4 0  9998
2 58365  43.0020 183.2156 0001280 285.3478  74.7223 15.02543122 93026
Source of the keplerian elements: AFSPC